Waarnemingen

Advertentie
Mijn weer
Düsseldorf, Duitsland (10400): temperatuur & dauwpunt: 15.02.2018 14:00:00 - 21.02.2018 14:00:00 (CET)Düsseldorf, Duitsland (10400): temperatuur 5cm & temperatuur -5cm: 15.02.2018 14:00:00 - 21.02.2018 14:00:00 (CET)Düsseldorf, Duitsland (10400): temperatuur -20cm & temperatuur -100cm: 15.02.2018 14:00:00 - 21.02.2018 14:00:00 (CET)Düsseldorf, Duitsland (10400): windsnelheid & windstoten: 15.02.2018 14:00:00 - 21.02.2018 14:00:00 (CET)Düsseldorf, Duitsland (10400): windrichting: 15.02.2018 14:00:00 - 21.02.2018 14:00:00 (CET)Düsseldorf, Duitsland (10400): luchtdruk: 15.02.2018 14:00:00 - 21.02.2018 14:00:00 (CET)Düsseldorf, Duitsland (10400): zicht: 15.02.2018 14:00:00 - 21.02.2018 14:00:00 (CET)Düsseldorf, Duitsland (10400): Zonneschijnduur: 15.02.2018 14:00:00 - 21.02.2018 14:00:00 (CET)Düsseldorf, Duitsland (10400): neerslag: 15.02.2018 14:00:00 - 21.02.2018 14:00:00 (CET)
Datum & Tijd tt [°C] td [°C] tt 5cm [°C] tt -5cm [°C] tt -20cm [°C] tt -100cm [°C] ff [km/u] ff [kn] fx [km/u] fx [kn] dd ppp [hPa] vv [km] sd [min] rr [mm]
21.02.2018 14:00:00 4,1 -5,1 6,1 3,9 1,3 3,9 21 11 29 16 NNO 1025,0 18 0 0,0
21.02.2018 13:00:00 3,6 -4,8 4,8 2,3 1,1 3,9 16 9 29 16 NNO 1025,2 10 28 0,0
21.02.2018 12:00:00 2,8 -4,8 3,9 0,1 1,1 3,9 15 8 26 14 NNO 1025,3 10 60 0,0
21.02.2018 11:00:00 1,7 -3,5 2,7 0,1 1,1 3,9 11 6 21 11 NNO 1025,4 7 60 0,0
21.02.2018 10:00:00 0,0 -4,0 0,4 0,0 1,1 3,9 11 6 16 9 NO 1025,7 6 60 0,0
21.02.2018 09:00:00 -0,7 -3,8 -1,4 0,0 1,2 3,9 11 6 15 8 NNO 1025,4 6 12 0,0
21.02.2018 08:00:00 -1,8 -4,2 -3,2 0,0 1,2 3,9 9 5 13 7 N 1025,5 4,5 0 0,0
21.02.2018 07:00:00 -1,2 -4,1 -3,4 0,1 1,3 3,9 4 2 16 9 ONO 1024,8 8 0 0,0
21.02.2018 06:00:00 -0,4 -4,0 -0,8 0,1 1,3 3,9 15 8 26 14 NO 1024,9 10 0 0,0
21.02.2018 05:00:00 -0,9 -4,6 -1,5 0,1 1,4 3,9 16 9 22 12 NO 1024,5 10 0 0,0
21.02.2018 04:00:00 -1,5 -4,7 -2,7 0,2 1,5 3,9 15 8 19 10 NNO 1024,2 10 0 0,0
21.02.2018 03:00:00 -1,3 -4,9 -2,8 0,3 1,6 3,9 9 5 15 8 NO 1023,8 10 0 0,0
21.02.2018 02:00:00 -0,9 -4,6 -2,1 0,4 1,7 3,9 11 6 15 8 NNO 1024,0 12 0 0,0
21.02.2018 01:00:00 -1,4 -4,5 -3,6 0,5 1,8 3,9 9 5 15 8 N 1023,5 12 0 0,0
21.02.2018 00:00:00 -0,4 -4,2 -2,2 0,6 1,9 3,9 9 5 18 10 N 1022,9 10 0 0,0
20.02.2018 23:00:00 0,6 -4,3 -0,7 0,7 2,0 3,9 15 8 21 11 NNO 1022,2 10 0 0,0
20.02.2018 22:00:00 1,1 -4,2 -0,1 0,8 2,1 3,9 15 8 22 12 NNO 1021,5 10 0 0,0
20.02.2018 21:00:00 1,9 -4,0 0,7 0,8 2,4 3,9 15 8 24 13 NNO 1021,2 10 0 0,0
20.02.2018 20:00:00 2,2 -3,9 0,7 1,1 2,6 3,9 16 9 22 12 NNO 1020,6 14 0 0,0
20.02.2018 19:00:00 2,6 -3,6 0,8 1,9 2,9 3,9 11 6 18 10 NNO 1020,0 10 0 0,0
20.02.2018 18:00:00 3,5 -3,7 2,1 3,0 3,0 3,9 16 9 29 16 NO 1019,3 10 0 0,0
20.02.2018 17:00:00 4,8 -3,7 4,1 4,2 2,9 3,9 21 11 29 16 NO 1018,7 17 11 0,0
20.02.2018 16:00:00 5,8 -3,6 6,2 5,1 2,6 3,9 16 9 26 14 NNO 1018,3 10 4 0,0
20.02.2018 15:00:00 6,0 -3,4 7,0 5,6 2,1 3,9 15 8 22 12 NNO 1018,2 10 18 0,0
20.02.2018 14:00:00 5,5 -3,2 7,1 5,1 1,6 3,9 9 5 16 9 N 1018,3 13 41 0,0
20.02.2018 13:00:00 4,6 -2,5 6,0 3,7 1,2 3,9 9 5 16 9 NW 1018,8 10 60 0,0
20.02.2018 12:00:00 3,7 -2,3 5,0 1,1 1,2 3,9 7 4 13 7 NNW 1019,1 15 60 0,0
20.02.2018 11:00:00 2,4 -2,6 3,2 0,1 1,2 3,9 9 5 13 7 OZO 1018,6 9 60 0,0
20.02.2018 10:00:00 -0,2 -2,4 -0,2 0,1 1,2 3,9 9 5 13 7 ONO 1018,7 8 60 0,0
20.02.2018 09:00:00 -2,1 -3,4 -2,5 0,1 1,3 3,9 4 2 5 3 NNW 1018,9 8 19 0,0
20.02.2018 08:00:00 -3,9 -4,8 -7,0 0,2 1,4 3,9 4 2 9 5 NNO 1018,5 8 0 0,0
20.02.2018 07:00:00 -3,3 -4,1 -6,7 0,2 1,4 3,9 4 2 5 3 NNW 1018,3 12 0 0,0
20.02.2018 06:00:00 -3,1 -4,0 -5,4 0,3 1,5 3,9 4 2 5 3 N 1018,4 10 0 0,0
20.02.2018 05:00:00 -3,1 -3,9 -4,9 0,4 1,6 3,9 5 3 5 3 ONO 1018,2 12 0 0,0
20.02.2018 04:00:00 -3,2 -4,3 -4,8 0,5 1,7 3,9 4 2 8 4 NNO 1018,1 10 0 0,0
20.02.2018 03:00:00 -2,8 -3,8 -5,5 0,6 1,8 3,9 4 2 5 3 ONO 1017,9 10 0 0,0
20.02.2018 02:00:00 -2,5 -3,8 -5,6 0,6 1,9 3,9 4 2 8 4 ONO 1017,8 10 0 0,0
20.02.2018 01:00:00 -0,8 -2,9 -3,4 0,7 2,0 3,9 4 2 4 2 NNO 1018,3 13 0 0,0
20.02.2018 00:00:00 1,0 -1,6 -0,4 1,3 2,1 3,9 2 1 5 3 - 1018,0 10 0 0,0
19.02.2018 23:00:00 2,0 -2,0 0,4 1,5 2,2 3,9 4 2 8 4 ONO 1018,0 10 0 0,0
19.02.2018 22:00:00 1,6 -2,3 -0,2 1,7 2,3 3,9 4 2 5 3 NO 1018,3 15 0 0,0
19.02.2018 21:00:00 1,6 -2,1 -0,1 1,9 2,4 3,9 4 2 5 3 NNO 1018,4 10 0 0,0
19.02.2018 20:00:00 2,2 -2,8 0,2 2,2 2,5 3,9 4 2 9 5 - 1018,3 10 0 0,0
19.02.2018 19:00:00 2,6 -2,5 0,2 2,6 2,6 3,9 4 2 8 4 NW 1018,4 18 0 0,0
19.02.2018 18:00:00 3,5 -2,8 2,4 3,2 2,6 3,9 8 4 11 6 W 1018,3 10 0 0,0
19.02.2018 17:00:00 4,0 -2,1 3,9 4,0 2,4 4,0 7 4 15 8 ZW 1018,5 20 0 0,0
19.02.2018 16:00:00 4,5 -2,6 5,1 4,3 2,1 4,0 5 3 16 9 - 1018,7 10 0 0,0
19.02.2018 15:00:00 4,4 -3,0 5,8 4,0 1,6 4,0 9 5 23 13 Z 1019,1 10 6 0,0
19.02.2018 14:00:00 3,8 -3,6 5,2 3,0 1,2 4,0 11 6 21 11 Z 1019,7 20 4 0,0
19.02.2018 13:00:00 3,1 -3,3 4,5 1,0 1,1 4,0 15 8 21 11 ZZO 1020,1 10 0 0,0
19.02.2018 12:00:00 2,5 -3,3 3,0 0,3 1,1 4,0 13 7 22 12 Z 1020,5 10 3 0,0
19.02.2018 11:00:00 2,0 -3,2 2,5 0,3 1,2 4,0 16 9 28 15 Z 1020,7 16 0 0,0
19.02.2018 10:00:00 1,3 -3,3 1,3 0,3 1,2 4,0 16 9 29 16 ZZO 1021,1 10 0 0,0
19.02.2018 09:00:00 0,6 -3,5 0,3 0,2 1,2 4,0 23 12 29 16 ZZO 1021,4 14 0 0,0
19.02.2018 08:00:00 0,4 -3,5 -0,2 0,2 1,2 4,0 18 10 27 14 ZO 1021,8 12 0 0,0
19.02.2018 07:00:00 0,4 -3,3 -0,3 0,3 1,3 4,0 18 10 25 14 ZZO 1021,7 9 0 0,0
19.02.2018 06:00:00 0,2 -3,3 -0,5 0,3 1,3 4,0 18 10 25 14 ZZO 1021,8 9 0 0,0
19.02.2018 05:00:00 0,1 -3,1 -0,8 0,3 1,4 4,0 17 9 23 13 ZZO 1022,7 9 0 0,0
19.02.2018 04:00:00 0,2 -3,0 -1,0 0,4 1,4 4,0 13 7 26 14 ZZO 1022,8 10 0 0,0
19.02.2018 03:00:00 0,5 -3,1 -0,7 0,4 1,5 4,0 16 9 31 17 ZZO 1023,1 10 0 0,0
19.02.2018 02:00:00 0,6 -3,3 -0,5 0,4 1,5 4,0 21 11 31 17 ZZO 1023,5 10 0 0,0
19.02.2018 01:00:00 0,7 -3,3 -0,9 0,5 1,6 4,0 16 9 28 15 ZZO 1024,1 10 0 0,0
19.02.2018 00:00:00 0,3 -3,4 -2,1 0,5 1,7 4,0 15 8 21 11 ZZO 1024,4 10 0 0,0
18.02.2018 23:00:00 1,3 -3,2 -0,8 0,6 1,8 4,0 15 8 28 15 ZZO 1024,4 10 0 0,0
18.02.2018 22:00:00 2,3 -3,0 0,5 0,7 2,0 4,0 18 10 26 14 ZZO 1024,7 10 0 0,0
18.02.2018 21:00:00 2,7 -3,2 0,5 0,7 2,2 4,0 15 8 24 13 ZZO 1025,0 10 0 0,0
18.02.2018 20:00:00 3,6 -3,5 1,0 1,0 2,4 4,0 15 8 21 11 ZZO 1025,0 10 0 0,0
18.02.2018 19:00:00 3,8 -3,7 0,2 1,9 2,7 4,0 12 6 16 9 ZZO 1025,1 25 0 0,0
18.02.2018 18:00:00 4,5 -3,2 1,2 3,1 2,7 4,0 14 8 22 12 ZZO 1025,2 22 0 0,0
18.02.2018 17:00:00 6,0 -3,7 4,8 4,4 2,5 4,0 14 8 22 12 Z 1025,5 27 0 0,0
18.02.2018 16:00:00 6,7 -2,1 6,6 5,3 2,0 4,0 15 8 24 13 Z 1025,6 10 43 0,0
18.02.2018 15:00:00 7,0 -1,5 8,2 5,1 1,4 4,0 12 7 24 13 Z 1026,0 22 60 0,0
18.02.2018 14:00:00 6,8 -1,3 8,2 3,5 1,0 4,0 15 8 24 13 Z 1026,5 20 60 0,0
18.02.2018 13:00:00 5,8 -1,4 6,3 0,9 0,9 4,0 13 7 21 11 Z 1027,2 17 60 0,0
18.02.2018 12:00:00 4,5 -2,0 5,6 0,0 1,0 4,0 18 10 29 16 Z 1027,5 10 60 0,0
18.02.2018 11:00:00 3,3 -2,0 3,7 0,0 1,0 4,0 21 11 33 18 ZZO 1027,3 10 60 0,0
18.02.2018 10:00:00 1,4 -2,6 1,5 -0,1 1,0 4,0 18 10 34 18 ZZO 1027,2 10 59 0,0
18.02.2018 09:00:00 0,0 -3,4 -0,5 -0,1 1,0 4,0 22 12 35 19 ZZO 1027,1 16 29 0,0
18.02.2018 08:00:00 -0,9 -4,0 -2,3 -0,1 1,1 4,0 21 11 29 16 ZZO 1027,1 10 0 0,0
18.02.2018 07:00:00 -0,6 -4,0 -2,3 -0,1 1,1 4,0 21 11 31 17 ZZO 1026,9 10 0 0,0
18.02.2018 06:00:00 0,1 -4,0 -2,2 0,0 1,2 4,0 21 11 28 15 ZZO 1026,8 20 0 0,0
18.02.2018 05:00:00 -0,6 -4,5 -3,9 0,1 1,3 4,0 9 5 15 8 ZZO 1026,7 20 0 0,0
18.02.2018 04:00:00 -3,2 -5,3 -7,6 0,1 1,3 4,0 5 3 14 7 ZZO 1027,1 10 0 0,0
18.02.2018 03:00:00 -1,6 -4,7 -5,9 0,2 1,4 4,0 11 6 15 8 ZZO 1027,1 10 0 0,0
18.02.2018 02:00:00 -3,1 -4,6 -5,7 0,3 1,5 4,0 8 4 16 9 OZO 1026,8 10 0 0,0
18.02.2018 01:00:00 -2,8 -4,8 -5,5 0,4 1,6 4,0 9 5 15 8 ZO 1026,7 10 0 0,0
18.02.2018 00:00:00 -2,2 -3,6 -6,4 0,5 1,7 4,0 5 3 8 4 OZO 1026,6 10 0 0,0
17.02.2018 23:00:00 -2,1 -3,6 -5,9 0,5 1,8 4,0 8 4 9 5 OZO 1026,2 10 0 0,0
17.02.2018 22:00:00 -1,3 -3,4 -6,1 0,6 1,9 4,0 8 4 14 8 O 1025,7 10 0 0,0
17.02.2018 21:00:00 -0,7 -3,2 -4,3 0,7 2,1 4,0 4 2 11 6 NO 1025,3 10 0 0,0
17.02.2018 20:00:00 -0,6 -3,9 -4,9 0,9 2,3 4,0 5 3 13 7 O 1025,0 20 0 0,0
17.02.2018 19:00:00 1,1 -2,8 -3,5 1,4 2,6 4,0 8 4 13 7 ONO 1024,6 20 0 0,0
17.02.2018 18:00:00 4,4 -2,5 0,8 2,7 2,6 4,0 9 5 18 10 NO 1023,7 10 0 0,0
17.02.2018 17:00:00 5,4 -2,2 5,3 3,9 2,5 4,0 14 8 21 11 ONO 1023,3 20 27 0,0
17.02.2018 16:00:00 5,9 -2,3 5,6 4,1 2,2 4,0 11 6 18 10 NO 1023,0 10 0 0,0
17.02.2018 15:00:00 5,9 -2,4 7,0 4,2 1,8 4,0 10 5 16 9 NO 1022,8 22 7 0,0
17.02.2018 14:00:00 5,7 -2,0 7,1 3,5 1,4 4,0 9 5 20 11 O 1022,8 10 25 0,0
17.02.2018 13:00:00 5,2 -2,5 6,0 1,4 1,2 4,0 11 6 16 9 O 1022,9 10 25 0,0
17.02.2018 12:00:00 4,1 -1,7 4,2 0,3 1,2 4,0 10 5 13 7 NO 1023,1 18 0 0,0
17.02.2018 11:00:00 2,4 -1,4 1,9 0,3 1,3 4,0 8 4 9 5 NNO 1022,9 10 0 0,0
17.02.2018 10:00:00 0,9 -2,3 -0,2 0,3 1,3 4,0 5 3 13 7 ONO 1023,0 10 0 0,0
17.02.2018 09:00:00 -0,5 -2,4 -1,8 0,3 1,3 4,0 5 3 8 4 ONO 1022,9 10 0 0,0
17.02.2018 08:00:00 -1,1 -2,6 -2,1 0,3 1,4 4,0 6 3 13 7 NO 1023,1 20 0 0,0
17.02.2018 07:00:00 -0,2 -2,4 -2,2 0,4 1,4 4,0 8 4 16 9 OZO 1023,7 10 0 0,0
17.02.2018 06:00:00 -0,5 -2,7 -2,3 0,4 1,5 4,0 5 3 8 4 O 1023,9 10 0 0,0
17.02.2018 05:00:00 -0,6 -2,7 -2,5 0,4 1,5 4,0 4 2 5 3 ZO 1024,5 26 0 0,0
17.02.2018 04:00:00 -1,4 -2,8 -3,3 0,4 1,6 4,0 4 2 5 3 ONO 1025,2 26 0 0,0
17.02.2018 03:00:00 -1,5 -2,9 -4,2 0,5 1,7 4,0 4 2 8 4 - 1025,3 10 0 0,0
17.02.2018 02:00:00 -2,8 -4,1 -4,6 0,5 1,8 4,0 6 4 9 5 O 1025,8 26 0 0,0
17.02.2018 01:00:00 0,4 -2,1 -2,7 0,6 1,9 4,0 8 4 21 11 - 1026,7 10 0 0,0
17.02.2018 00:00:00 -0,8 -3,1 -4,9 0,6 2,0 4,0 7 4 11 6 OZO 1026,6 28 0 0,0
16.02.2018 23:00:00 -0,4 -2,9 -3,6 0,7 2,2 4,0 5 3 9 5 ZZO 1027,2 10 0 0,0
16.02.2018 22:00:00 0,3 -2,3 -4,1 0,9 2,4 4,0 5 3 11 6 O 1027,1 10 0 0,0
16.02.2018 21:00:00 0,1 -2,7 -3,6 1,0 2,7 4,0 5 3 9 5 OZO 1027,1 10 0 0,0
16.02.2018 20:00:00 1,2 -2,2 -3,6 1,7 3,1 4,0 2 1 5 3 - 1027,2 10 0 0,0
16.02.2018 19:00:00 3,4 -1,5 -3,4 2,8 3,3 4,0 4 2 11 6 WZW 1027,0 10 0 0,0
16.02.2018 18:00:00 5,6 -1,3 -0,9 4,3 3,4 4,0 8 4 13 7 WZW 1027,1 10 0 0,0
16.02.2018 17:00:00 6,8 -0,8 6,1 5,9 3,3 4,0 9 5 21 11 WZW 1026,8 10 52 0,0
16.02.2018 16:00:00 7,9 -0,8 8,7 6,7 2,8 4,0 9 5 27 15 W 1026,7 10 60 0,0
16.02.2018 15:00:00 7,7 -1,0 8,8 6,8 2,2 4,0 18 10 29 16 W 1026,8 10 60 0,0
16.02.2018 14:00:00 7,4 -0,5 8,6 5,7 1,5 4,0 15 8 25 13 WZW 1026,8 40 58 0,0
16.02.2018 13:00:00 6,0 0,8 5,2 3,9 1,1 4,0 22 12 29 16 W 1027,0 10 54 0,0
16.02.2018 12:00:00 6,0 1,6 5,6 1,4 1,0 4,0 19 11 26 14 WZW 1026,8 15 58 0,0
16.02.2018 11:00:00 4,3 1,7 4,2 0,2 1,0 4,0 16 9 22 12 ZW 1026,3 15 60 0,0
16.02.2018 10:00:00 2,0 0,8 1,0 0,2 1,0 4,0 15 8 22 12 ZW 1025,6 10 11 0,0
16.02.2018 09:00:00 0,1 -0,9 -1,8 0,2 1,0 4,0 13 7 22 12 ZW 1025,0 12 0 0,0
16.02.2018 08:00:00 -0,5 -1,1 -4,6 0,2 1,1 4,0 15 8 18 10 ZZW 1024,3 10 0 0,0
16.02.2018 07:00:00 -0,5 -1,0 -5,4 0,2 1,1 4,0 15 8 21 11 ZW 1023,5 7 0 0,0
16.02.2018 06:00:00 -0,8 -1,3 -4,4 0,3 1,1 4,0 13 7 15 8 ZZW 1022,8 10 0 0,0
16.02.2018 05:00:00 -0,6 -1,1 -3,5 0,3 1,2 4,0 12 7 15 8 ZZW 1022,1 15 0 0,0
16.02.2018 04:00:00 -0,7 -1,3 -4,0 0,3 1,2 4,0 13 7 16 9 ZZW 1021,5 12 0 0,0
16.02.2018 03:00:00 -0,6 -0,7 -4,3 0,3 1,2 4,0 9 5 13 7 Z 1020,8 10 0 0,0
16.02.2018 02:00:00 -0,9 -1,2 -4,8 0,4 1,3 4,0 4 2 10 5 ZZO 1020,3 3,5 0 0,0
16.02.2018 01:00:00 0,1 -0,2 -3,8 0,4 1,4 4,0 6 3 9 5 Z 1019,5 0,9 0 0,0
16.02.2018 00:00:00 1,1 1,0 -3,9 0,5 1,5 4,0 11 6 13 7 Z 1018,7 10 0 0,0
15.02.2018 23:00:00 2,4 2,1 -2,5 0,6 1,6 4,0 9 5 11 6 ZZW 1018,1 10 0 0,0
15.02.2018 22:00:00 2,6 2,3 -1,4 1,0 1,8 4,0 8 4 11 6 ZW 1017,3 10 0 0,0
15.02.2018 21:00:00 4,0 3,6 0,6 1,9 1,7 4,1 3 2 21 11 ZW 1016,8 15 0 0,0
15.02.2018 20:00:00 5,5 4,3 4,6 2,3 1,6 4,1 14 8 30 16 ZZO 1015,7 11 0 0,0
15.02.2018 19:00:00 4,7 3,8 4,1 2,2 1,5 4,1 18 10 31 17 ZZO 1014,9 8 0 0,3
15.02.2018 18:00:00 4,2 3,3 3,7 2,1 1,3 4,1 26 14 31 17 ZZO 1014,0 8 0 0,0
15.02.2018 17:00:00 4,2 3,5 4,0 1,8 1,1 4,1 21 11 31 17 ZZO 1013,6 6 0 0,0
15.02.2018 16:00:00 3,8 2,8 3,6 1,3 1,0 4,1 29 16 37 20 ZZO 1013,0 5 0 0,0
15.02.2018 15:00:00 3,3 2,2 2,9 0,6 1,0 4,1 21 11 39 21 ZZO 1012,4 6 0 0,9
15.02.2018 14:00:00 2,7 1,4 2,2 0,3 1,0 4,1 26 14 40 22 ZZO 1012,1 8 0 0,1

tt = temperatuur
td = dauwpunt
tt 5cm = temperatuur 5cm
tt -5cm = temperatuur -5cm
tt -20cm = temperatuur -20cm
tt -100cm = temperatuur -100cm
ff = windsnelheid
fx = windstoten
dd = windrichting
ppp = luchtdruk
vv = zicht
sd = Zonneschijnduur
rr = neerslag

Weerstations in de omgeving